Regional Weather Roundup
Issued by NWS Cleveland, OH

Home | Current Version | Previous Version | Graphics & Text | Print | Product List | Glossary On
Versions: 1 2 3 4 5 6 7 8 9 10 11 12 13 14 15 16 17 18 19 20 21 22 23 24 25 26 27 28 29 30 31 32 33 34 35 36 37 38 39 40 41 42 43 44 45 46 47 48 49 50
000
ASUS41 KCLE 292210
RWRCLE
OHIO REGIONAL WEATHER ROUNDUP
NATIONAL WEATHER SERVICE WILMINGTON, OH
600 PM EDT FRI AUG 29 2014

NOTE: "FAIR" INDICATES FEW OR NO CLOUDS BELOW 12,000 FEET WITH NO
SIGNIFICANT WEATHER AND/OR OBSTRUCTIONS TO VISIBILITY.

OHZ001>008-015>018-024>027-034-035-043-044-292300-
   NORTHWEST OHIO

CITY           SKY/WX    TMP DP  RH WIND       PRES   REMARKS
DEFIANCE       CLOUDY    83  65  54 SE6       30.02S
FINDLAY        SUNNY     83  64  52 SE9       30.03S
TOLEDO EXPRESS MOSUNNY   80  62  54 SE3       30.03S
TOLEDO METCALF SUNNY     81  59  47 E8        30.04F
LIMA           SUNNY     83  66  56 SE7       30.04S
$$

OHZ009>014-019>023-028>033-038-089-292300-
   NORTHEAST OHIO

CITY           SKY/WX    TMP DP  RH WIND       PRES   REMARKS
CLE-HOPKINS    MOSUNNY   79  53  40 S7        30.09S
CLE-LAKEFRONT  SUNNY     74  61  63 NE12      30.07S
CUY CO. ARPT   PTSUNNY   79  57  47 SE9       30.09F
LORAIN-ELYRIA  SUNNY     82  55  39 SE3       30.08S
ASHTABULA      MOSUNNY   75  55  49 S3        30.11S
AKRON-CANTON   MOSUNNY   80  47  31 S5        30.09S
WOOSTER        SUNNY     78  56  46 SE7       30.10S
MANSFIELD      SUNNY     80  59  48 SE8       30.09F
YOUNGSTOWN     PTSUNNY   77  52  41 SE5       30.11F
$$

OHZ042-051>053-060>062-070>072-077>081-292300-
  SOUTHWEST OHIO

CITY           SKY/WX    TMP DP  RH WIND       PRES   REMARKS
CINC-COVINGTON NOT AVBL
CINC-LUNKEN    MOSUNNY   88  69  53 SE7       29.99S HX  92
HAMILTON       MOSUNNY   88  69  53 VRB5      30.00S HX  92
DAYTON         MOSUNNY   85  64  49 SE9       30.04S
WRIGHT-PAT AFB SUNNY     85  65  51 SE10      30.03S
DAYTON GENERAL SUNNY     83  67  58 E7        30.02S
WILMINGTON     SUNNY     83  64  52 SE6       30.04S
$$

OHZ036-037-039>041-045>050-054>059-063>069-073>076-082>088-292300-
  CENTRAL AND SOUTHEAST OHIO

CITY           SKY/WX    TMP DP  RH WIND       PRES   REMARKS
COLUMBUS       MOSUNNY   86  60  41 E8        30.04F
OSU AIRPORT    SUNNY     83  60  45 SE10      30.04F
BOLTON FIELD   SUNNY     82  66  57 CALM      30.05F
RICKENBACK AFB SUNNY     87  53  30 SE5       30.03F
NEWARK         SUNNY     82  60  47 VRB5      30.06S
MARION         SUNNY     81  60  48 SE7       30.06F
LANCASTER      SUNNY     84  61  45 E7        30.06R
ZANESVILLE     SUNNY     82  58  43 E7        30.07F
NEW PHILLY     SUNNY     78  57  48 E6        30.10S
$$


USA.gov is the U.S. government's official web portal to all federal, state and local government web resources and services.